Temperature
7 8 8 7 7 7 6 6 5 7 8 8 8 8 8 8 8 7 7 7 7 7 6 6 6 6 6 6 6 6 6 6 6 6 6 6 6 6 6 6 6 6 6 6
5 7 7 7 7 7 7 7 7 7 7 7 8 8 8 7 7 7 6 6 6 6 6 6 6 6 6 6 6 6 6 6 6 6 6 6 6 6 6 6 6 6 6 5
4 6 6 5 6 7 7 7 7 6 6 7 6 7 7 7 7 6 6 6 5 5 5 5 5 5 5 5 5 5 5 5 5 5 5 5 5 5 5 5 5 5 5 5
4 4 3 6 7 7 7 6 6 6 6 6 6 6 7 6 6 6 5 5 5 5 5 5 5 5 5 5 4 4 4 5 5 5 4 4 4 4 4 4 4 4 4 4
3 3 4 6 6 6 6 5 5 5 5 6 6 6 6 6 5 5 5 5 5 4 4 4 4 4 4 4 4 4 4 4 4 4 4 4 4 4 4 4 4 4 4 4
3 3 3 5 5 6 6 4 4 5 5 5 5 3 3 4 4 4 4 4 4 4 4 3 3 3 3 3 3 3 3 3 3 3 3 3 3 3 3 3 3 3 3 3
2 2 3 4 5 5 3 3 4 5 4 4 4 3 4 3 3 3 3 3 3 3 3 3 3 3 3 2 2 2 2 2 2 2 2 2 2 2 2 2 2 2 2 2
2 2 2 4 4 3 3 4 4 4 4 4 3 3 3 3 3 3 3 3 3 3 2 2 2 2 2 2 2 2 2 2 2 2 2 2 2 2 2 2 2 2 2 2
2 3 3 4 3 3 3 3 3 3 3 3 2 2 2 2 2 2 2 2 2 2 2 2 1 1 1 1 1 1 1 1 1 1 1 1 1 1 1 1 1 1 1 1
2 3 3 3 3 3 3 3 2 2 2 2 2 2 1 1 1 1 1 1 1 1 1 1 1 1 1 1 1 1 1 1 1 1 1 1 1 1 1 1 1 0 0 0
1 2 3 3 3 2 2 2 1 1 1 1 1 1 1 1 1 1 1 1 1 0 0 0 0 0 0 0 0 0 0 0 0 0 0 0 0 0 0 0 0 -0 -0 -0
1 2 1 2 2 2 1 1 1 1 1 1 1 0 0 0 -0 -0 -0 -0 -0 -0 -0 -0 -0 -0 -0 -0 -0 -0 -0 -0 -0 -0 -0 -1 -1 -1 -1 -1 -1 -1 -1 -1
2 2 1 1 1 1 1 0 0 0 0 -0 -0 -0 -0 -1 -1 -1 -1 -1 -1 -1 -1 -1 -1 -1 -1 -1 -1 -1 -1 -1 -1 -1 -1 -1 -1 -1 -1 -1 -1 -1 -1 -1
1 1 0 0 0 -0 -0 -0 -0 -0 -1 -1 -1 -1 -1 -1 -1 -1 -1 -1 -1 -1 -1 -1 -1 -1 -1 -1 -1 -1 -2 -2 -2 -2 -2 -2 -2 -2 -2 -2 -2 -2 -2 -2
0 -0 -0 -1 -1 -1 -1 -1 -1 -1 -1 -1 -1 -1 -2 -2 -2 -2 -2 -2 -2 -2 -2 -2 -2 -2 -2 -2 -2 -2 -2 -2 -2 -2 -3 -3 -3 -3 -3 -3 -3 -3 -2 -2
-1 -1 -1 -1 -1 -1 -2 -2 -2 -2 -2 -2 -2 -2 -2 -2 -2 -2 -2 -2 -2 -2 -2 -2 -2 -2 -2 -2 -3 -3 -3 -3 -3 -3 -3 -3 -3 -3 -3 -3 -3 -3 -3 -3
-1 -2 -2 -2 -2 -2 -2 -2 -2 -2 -2 -2 -2 -2 -2 -2 -2 -2 -2 -2 -2 -2 -2 -2 -2 -3 -3 -3 -3 -3 -3 -3 -3 -3 -4 -4 -4 -4 -4 -4 -4 -4 -4 -4
-1 -2 -2 -2 -2 -2 -2 -2 -2 -2 -2 -2 -3 -3 -3 -3 -3 -3 -3 -3 -3 -3 -3 -3 -3 -3 -3 -3 -3 -4 -4 -4 -4 -4 -4 -4 -4 -4 -4 -4 -4 -4 -4 -4
-2 -2 -2 -2 -2 -3 -3 -3 -3 -3 -3 -3 -3 -3 -3 -3 -3 -3 -3 -3 -3 -3 -3 -3 -3 -4 -4 -4 -4 -4 -4 -4 -4 -4 -4 -5 -5 -5 -5 -5 -5 -4 -4 -4
-2 -2 -3 -3 -3 -3 -3 -3 -3 -3 -3 -3 -3 -4 -4 -3 -3 -4 -4 -4 -4 -4 -4 -4 -4 -4 -4 -4 -4 -4 -4 -5 -5 -5 -5 -5 -5 -5 -5 -5 -5 -5 -5 -5
-3 -3 -3 -3 -3 -3 -3 -3 -3 -3 -3 -4 -4 -4 -4 -4 -4 -4 -4 -4 -4 -4 -4 -4 -4 -4 -4 -5 -5 -5 -5 -5 -5 -5 -5 -5 -5 -5 -5 -5 -5 -5 -5 -5
-3 -3 -4 -4 -4 -4 -4 -4 -4 -4 -4 -4 -4 -4 -4 -4 -4 -4 -5 -5 -5 -5 -5 -5 -5 -5 -5 -5 -5 -5 -5 -5 -5 -5 -6 -6 -6 -6 -6 -6 -6 -5 -5 -5
-4 -4 -4 -4 -4 -4 -4 -4 -4 -4 -4 -4 -5 -5 -5 -5 -5 -5 -5 -5 -5 -5 -5 -5 -5 -5 -5 -6 -6 -6 -6 -6 -6 -6 -6 -6 -6 -6 -6 -6 -6 -6 -6 -6
-4 -4 -4 -4 -5 -5 -5 -4 -4 -5 -5 -5 -5 -5 -5 -5 -5 -5 -5 -5 -5 -6 -6 -6 -6 -6 -6 -6 -6 -6 -6 -6 -6 -6 -6 -6 -6 -6 -6 -6 -6 -6 -6 -6
-5 -5 -5 -5 -5 -5 -5 -5 -5 -5 -5 -5 -5 -5 -6 -6 -6 -6 -6 -6 -6 -6 -6 -6 -6 -6 -6 -6 -6 -6 -6 -6 -6 -6 -6 -6 -6 -6 -6 -6 -6 -6 -6 -6
-5 -6 -6 -6 -6 -6 -6 -6 -6 -6 -6 -6 -6 -6 -6 -6 -6 -6 -6 -6 -6 -6 -6 -6 -6 -6 -6 -6 -6 -6 -6 -6 -6 -7 -7 -7 -7 -6 -6 -6 -6 -6 -6 -6
-6 -6 -6 -6 -6 -6 -7 -7 -7 -7 -7 -7 -7 -7 -7 -7 -7 -7 -7 -7 -7 -7 -7 -7 -7 -6 -7 -7 -7 -7 -7 -7 -7 -7 -7 -7 -7 -7 -7 -7 -7 -7 -6 -6
Wind_Speed
10 9 7 9 10 9 10 10 9 9 10 8 5 4 2 1 1 1 1 1 2 2 2 2 1 1 1 1 1 1 1 1 1 1 1 1 1 1 1 2 2 2 2 2
9 10 10 13 12 13 13 13 13 13 12 7 5 4 3 2 1 1 2 2 2 2 1 2 2 1 1 1 1 1 1 1 1 1 1 1 1 1 2 2 2 2 2 3
6 6 7 10 11 13 10 9 8 11 8 5 4 4 3 3 2 2 3 2 2 2 2 2 2 2 2 1 0 1 1 1 1 1 1 2 2 2 2 2 2 3 3 3
4 3 9 6 1 3 6 5 5 4 3 3 4 4 3 2 2 3 3 2 2 2 2 2 1 1 1 1 1 1 2 2 2 2 2 2 2 2 3 3 3 3 3 3
4 6 10 5 3 3 4 4 2 4 4 5 5 5 4 3 3 3 3 3 2 2 1 1 1 1 1 2 2 2 3 3 3 2 2 2 3 3 3 3 3 4 4 4
6 6 7 2 1 1 1 3 0 1 2 3 4 3 4 6 5 5 3 3 3 2 2 1 2 1 1 2 2 3 3 3 3 3 3 3 4 4 3 3 4 4 5 5
9 8 7 2 0 1 3 3 1 1 2 2 2 3 4 5 5 3 3 3 2 2 2 2 2 1 2 3 4 4 3 3 3 3 4 4 4 3 4 4 4 5 5 5
6 8 7 0 1 1 2 2 3 3 3 3 3 4 4 4 4 3 3 3 3 2 2 2 2 2 3 4 4 3 3 3 4 4 4 4 4 4 4 4 5 5 5 6
5 5 2 1 1 1 2 3 3 4 4 5 5 6 5 5 5 4 4 3 2 3 3 3 2 2 4 4 3 3 3 4 4 5 5 5 5 5 5 5 5 5 5 5
5 5 4 5 4 2 3 3 4 4 5 6 7 7 6 6 5 5 4 4 3 3 3 4 3 3 4 4 3 3 4 5 5 5 5 5 5 5 5 5 5 5 5 5
8 8 7 5 3 4 5 5 5 6 6 7 7 8 7 6 5 4 4 4 3 3 4 4 4 4 4 4 4 4 5 5 5 5 5 5 5 5 6 6 7 7 6 6
7 5 6 7 5 6 6 7 7 7 8 7 6 6 6 5 5 4 4 4 4 4 4 5 5 5 4 4 4 4 5 5 4 4 4 4 5 6 8 9 10 12 12 10
6 6 7 7 6 5 6 6 6 6 6 6 5 5 5 5 5 4 4 4 4 5 5 5 5 6 5 4 4 5 5 5 4 4 4 5 5 5 6 7 9 11 13 13
4 4 6 6 6 6 6 6 5 4 5 4 3 3 3 4 4 4 5 5 5 5 5 6 6 6 6 5 5 6 6 6 6 5 5 5 5 6 6 6 7 6 8 12
3 3 5 5 5 5 5 4 4 4 4 4 3 3 3 4 5 5 5 5 4 5 6 6 6 7 5 5 5 6 6 5 5 5 5 5 6 6 6 7 7 7 6 7
3 4 4 5 5 5 5 5 4 5 5 4 4 4 4 4 5 5 5 5 5 6 7 6 7 7 5 5 6 6 6 8 7 6 5 6 6 6 6 7 7 7 8 7
4 5 5 6 6 6 5 5 4 4 4 5 5 4 4 5 5 6 6 6 6 7 7 7 7 7 6 6 6 5 5 6 8 7 6 6 7 7 7 7 8 8 8 9
4 5 5 6 5 5 5 5 5 5 5 5 5 5 5 6 6 7 7 6 6 7 7 7 7 6 6 6 6 5 5 6 5 6 6 6 7 7 7 8 8 9 8 9
4 5 5 5 5 5 5 5 5 5 6 5 5 6 6 7 7 7 7 6 7 9 8 6 8 7 7 7 7 5 5 6 6 6 6 10 10 7 7 8 8 8 8 7
5 5 5 6 5 5 6 6 6 6 6 5 6 7 7 7 7 7 7 8 8 7 7 7 6 6 6 7 7 5 6 7 7 7 7 7 8 8 8 8 8 8 8 8
5 6 6 6 6 7 7 7 6 7 7 6 6 7 8 8 7 6 7 8 8 7 7 9 6 6 6 6 8 5 6 7 7 7 8 8 8 8 8 8 8 8 8 8
6 6 7 7 7 8 7 6 6 7 7 7 7 7 8 8 8 8 8 8 8 9 6 5 5 7 8 9 5 6 6 7 8 7 7 7 8 8 8 8 8 8 7 7
6 7 7 8 8 8 8 7 7 7 8 8 8 8 8 8 7 7 9 7 5 8 7 6 8 12 13 8 6 6 7 8 8 8 8 7 8 8 8 8 8 7 7 7
7 8 8 8 7 7 8 9 8 7 8 8 8 8 8 7 7 6 7 9 10 11 7 9 12 13 12 6 6 7 7 7 8 7 8 7 7 8 8 8 8 7 7 8
8 8 8 8 7 7 8 8 7 7 7 7 7 7 6 6 7 7 6 7 10 10 7 9 13 13 8 6 6 7 7 7 7 7 7 7 7 7 7 7 7 7 7 7
7 7 7 7 7 7 6 6 6 6 6 6 6 5 5 5 6 6 6 7 8 10 8 6 7 8 6 6 6 7 7 7 8 8 7 7 7 8 7 7 8 7 7 7
7 7 6 6 6 6 5 5 6 6 6 6 7 6 6 5 5 6 7 6 6 6 6 6 5 5 5 5 6 6 6 6 6 7 7 7 7 7 7 7 6 6 5 6
Wind_Direction
267 278 274 261 250 235 230 228 235 258 269 283 302 315 311 312 309 299 279 273 260 254 227 192 188 205 174 156 147 159 167 173 198 210 234 220 207 235 238 228 229 222 216 223
274 265 263 266 255 243 240 241 248 265 274 287 308 336 339 334 320 292 281 276 272 260 251 231 201 203 211 200 167 156 188 226 230 218 226 238 243 252 259 251 239 228 222 224
269 271 287 261 239 231 231 229 237 249 261 297 322 326 322 324 328 304 287 278 263 277 267 263 227 192 205 226 192 184 215 245 251 242 241 243 248 253 257 258 253 243 232 228
269 274 244 245 258 210 219 239 231 240 288 314 310 316 317 310 305 307 305 303 288 274 275 281 273 204 190 195 201 219 238 245 250 246 254 257 255 252 259 259 252 252 248 239
233 246 267 262 239 194 207 251 246 245 284 307 317 316 317 345 340 313 308 315 312 306 302 300 284 252 215 218 223 232 243 246 249 242 245 253 257 253 252 254 254 251 248 242
231 243 254 262 354 11 132 250 321 281 300 324 342 314 307 345 347 336 329 323 329 336 339 316 288 269 243 239 235 240 246 248 245 241 242 244 245 249 251 249 249 249 249 242
236 248 261 270 236 95 195 234 345 340 318 311 294 277 297 327 331 331 331 326 323 312 292 277 279 273 257 253 248 248 249 250 247 242 243 246 249 248 246 248 250 251 254 250
221 238 247 44 78 199 255 329 346 341 331 314 300 300 304 311 310 307 304 297 298 290 281 272 262 262 263 259 256 252 250 253 253 250 249 251 249 252 247 244 244 249 254 258
219 232 274 310 256 281 313 314 319 321 320 312 300 295 292 292 290 285 280 276 280 280 282 281 270 256 267 272 268 259 256 255 255 253 249 244 242 246 249 246 244 247 247 255
284 271 293 290 291 306 303 298 302 301 302 298 290 289 287 281 281 285 288 282 278 278 276 279 278 264 258 266 262 250 253 257 253 250 253 249 245 241 240 242 243 247 247 251
276 283 294 286 303 316 318 313 303 296 289 281 280 282 280 278 277 277 285 283 275 271 272 276 280 273 266 264 261 256 255 258 260 253 253 255 253 246 245 243 239 241 245 244
267 286 288 291 291 297 297 295 289 284 284 277 267 270 273 274 275 274 273 275 274 272 274 278 278 275 270 263 256 256 259 258 256 255 255 255 260 269 257 254 258 254 252 251
279 293 288 293 299 302 297 298 293 288 284 283 279 273 274 275 277 273 272 267 265 266 267 272 276 274 271 264 259 255 257 260 260 258 256 257 257 261 275 276 265 262 261 261
289 301 294 294 299 303 295 293 294 294 290 283 279 275 275 280 283 280 277 273 269 269 270 272 274 274 273 266 259 257 257 259 259 257 255 255 255 256 259 269 280 276 268 267
287 291 283 294 303 304 300 297 298 293 290 291 280 269 270 274 277 277 278 279 279 277 275 273 273 276 275 270 265 262 261 260 256 254 252 251 251 253 258 263 268 273 277 275
280 282 281 282 285 287 289 284 279 279 281 283 280 271 266 265 270 277 280 278 276 277 277 276 275 275 273 269 267 265 261 261 260 261 258 258 255 254 257 260 263 265 267 268
258 265 269 275 278 280 279 276 273 273 274 274 275 277 276 275 276 276 276 274 268 269 271 270 273 276 273 267 263 261 259 260 260 262 257 256 257 256 257 259 263 265 266 267
248 256 265 271 277 279 280 279 278 276 271 267 271 271 269 264 265 270 273 278 281 280 273 266 269 275 274 271 267 262 259 260 257 256 259 259 261 257 257 259 261 264 269 270
261 265 269 270 268 268 272 274 274 274 273 270 268 268 267 267 266 269 273 276 276 279 277 267 268 272 272 268 268 263 258 259 260 260 260 265 268 261 258 259 261 262 264 264
280 278 276 277 278 274 274 274 273 273 271 266 268 271 273 272 269 270 272 272 268 266 270 273 274 272 271 269 268 263 259 259 261 263 262 259 261 262 260 259 260 261 262 262
284 280 277 276 275 273 267 267 268 270 270 266 264 268 272 275 273 271 273 278 276 266 268 272 272 270 271 273 273 265 262 264 263 263 263 263 264 264 263 261 261 261 262 263
282 281 278 276 274 276 273 267 263 267 272 272 270 270 274 278 279 276 268 267 274 276 275 271 269 271 275 279 272 267 266 267 267 266 264 264 265 267 266 263 264 264 261 260
279 277 277 275 273 276 278 273 268 267 268 268 268 270 270 271 270 273 280 277 275 280 280 271 272 276 280 280 270 267 268 269 269 267 265 264 265 265 265 265 264 262 261 261
283 281 279 279 278 278 278 277 273 270 266 266 266 265 267 275 276 266 267 280 282 282 279 276 279 281 284 277 269 269 268 269 270 270 270 269 268 266 265 265 266 265 264 262
281 281 280 279 277 274 273 276 278 276 273 274 273 270 264 259 265 275 274 274 279 284 282 282 284 285 282 272 269 269 270 269 272 275 272 272 272 270 268 266 265 267 267 264
277 277 276 273 272 275 277 278 279 281 283 285 284 279 275 271 268 272 274 274 274 281 282 280 280 281 275 270 271 272 272 277 281 280 277 276 274 273 273 271 268 267 267 264
281 281 283 284 281 278 279 278 278 281 282 282 286 286 282 280 278 278 277 278 279 279 279 279 277 275 274 273 274 276 277 277 277 277 278 277 276 275 275 272 272 270 270 270
Height
1473 1471 1471 1471 1472 1473 1476 1475 1477 1467 1462 1460 1459 1459 1459 1459 1459 1460 1460 1460 1460 1460 1460 1461 1461 1461 1461 1461 1462 1462 1462 1463 1463 1463 1464 1464 1464 1465 1465 1465 1465 1465 1465 1466
1475 1469 1468 1467 1465 1465 1465 1465 1464 1462 1460 1458 1457 1457 1457 1458 1458 1458 1458 1458 1458 1458 1458 1458 1458 1458 1458 1458 1459 1459 1460 1460 1460 1460 1460 1460 1460 1460 1461 1461 1461 1461 1461 1461
1476 1467 1467 1467 1456 1456 1457 1456 1458 1460 1458 1455 1456 1455 1456 1456 1456 1456 1456 1455 1455 1455 1456 1456 1456 1456 1456 1456 1456 1456 1456 1457 1457 1457 1457 1457 1457 1457 1457 1457 1457 1457 1457 1457
1476 1473 1477 1455 1448 1447 1450 1452 1453 1453 1453 1454 1454 1454 1454 1454 1454 1453 1453 1453 1453 1453 1452 1452 1453 1453 1453 1453 1453 1453 1453 1453 1454 1454 1454 1453 1453 1453 1453 1453 1453 1453 1453 1453
1475 1472 1459 1451 1448 1447 1449 1451 1451 1451 1452 1452 1452 1451 1452 1452 1451 1451 1451 1450 1450 1450 1449 1449 1449 1449 1449 1449 1449 1449 1449 1449 1450 1450 1450 1449 1449 1450 1450 1450 1449 1450 1449 1449
1471 1470 1462 1450 1447 1445 1448 1453 1450 1449 1450 1450 1450 1453 1452 1450 1449 1449 1448 1447 1447 1446 1446 1445 1445 1446 1446 1446 1446 1445 1446 1446 1446 1446 1446 1445 1445 1445 1445 1445 1445 1445 1445 1445
1468 1465 1454 1449 1446 1446 1455 1453 1449 1448 1448 1449 1449 1451 1450 1448 1447 1446 1445 1444 1444 1443 1442 1442 1442 1442 1441 1441 1441 1442 1442 1442 1442 1441 1441 1441 1441 1441 1441 1441 1440 1440 1440 1439
1462 1462 1457 1448 1447 1450 1450 1448 1447 1447 1447 1447 1447 1446 1446 1445 1444 1443 1442 1441 1440 1440 1439 1439 1438 1438 1437 1437 1437 1437 1437 1437 1437 1437 1436 1436 1436 1436 1436 1435 1435 1434 1434 1433
1452 1452 1447 1445 1446 1447 1446 1446 1446 1446 1445 1445 1444 1443 1442 1441 1440 1440 1439 1438 1437 1436 1435 1435 1434 1434 1434 1433 1433 1433 1433 1432 1432 1432 1431 1431 1431 1430 1430 1429 1429 1428 1428 1427
1447 1444 1444 1444 1443 1443 1444 1443 1443 1443 1442 1441 1440 1439 1438 1437 1437 1436 1435 1434 1433 1432 1431 1430 1430 1430 1430 1429 1429 1428 1428 1427 1427 1427 1426 1425 1425 1424 1424 1423 1423 1422 1422 1421
1445 1443 1442 1440 1441 1441 1440 1440 1439 1438 1438 1437 1436 1434 1434 1433 1432 1431 1431 1430 1429 1428 1427 1426 1426 1426 1425 1425 1424 1423 1423 1422 1422 1421 1421 1420 1419 1419 1418 1417 1417 1417 1416 1416
1442 1440 1440 1438 1437 1437 1436 1435 1435 1434 1432 1431 1431 1429 1428 1428 1427 1427 1426 1425 1425 1424 1423 1422 1422 1421 1421 1420 1419 1419 1418 1417 1416 1416 1415 1414 1413 1412 1411 1412 1411 1410 1410 1409
1437 1436 1436 1434 1433 1433 1432 1430 1429 1428 1427 1426 1425 1425 1424 1423 1422 1422 1421 1420 1420 1419 1419 1418 1417 1416 1416 1415 1415 1414 1413 1412 1411 1410 1409 1408 1407 1406 1405 1404 1404 1403 1403 1402
1433 1432 1431 1430 1430 1428 1427 1426 1425 1423 1422 1421 1420 1420 1419 1419 1418 1417 1417 1416 1416 1415 1414 1413 1412 1411 1411 1410 1409 1408 1407 1406 1405 1404 1403 1402 1401 1400 1399 1398 1396 1395 1395 1395
1429 1429 1428 1426 1425 1424 1423 1422 1420 1419 1418 1417 1417 1416 1415 1415 1414 1413 1413 1412 1411 1410 1409 1408 1407 1406 1405 1404 1403 1402 1401 1400 1399 1398 1397 1396 1395 1394 1393 1391 1390 1388 1387 1387
1425 1425 1424 1423 1422 1420 1419 1418 1417 1416 1415 1414 1413 1412 1412 1411 1410 1409 1408 1408 1407 1405 1404 1403 1401 1400 1399 1398 1397 1396 1394 1393 1393 1391 1390 1389 1388 1387 1386 1385 1383 1381 1380 1379
1422 1421 1420 1419 1418 1417 1416 1415 1414 1413 1412 1411 1410 1409 1408 1407 1406 1405 1404 1403 1402 1400 1399 1397 1395 1394 1393 1392 1390 1389 1388 1387 1386 1385 1384 1383 1382 1380 1379 1378 1376 1375 1373 1373
1418 1418 1417 1416 1415 1413 1412 1411 1410 1409 1408 1407 1406 1405 1403 1402 1400 1399 1398 1397 1396 1394 1393 1391 1390 1388 1387 1385 1384 1383 1381 1380 1379 1378 1377 1376 1375 1373 1372 1371 1369 1368 1366 1365
1414 1414 1413 1412 1411 1410 1409 1407 1406 1405 1404 1403 1401 1400 1398 1397 1395 1394 1393 1391 1389 1387 1386 1385 1384 1382 1380 1379 1378 1376 1375 1373 1372 1371 1370 1369 1367 1366 1365 1363 1362 1361 1359 1358
1411 1410 1409 1408 1407 1406 1405 1403 1402 1401 1399 1398 1396 1395 1393 1391 1390 1389 1387 1385 1384 1382 1380 1379 1378 1376 1374 1373 1371 1370 1368 1367 1365 1364 1363 1361 1360 1359 1358 1356 1355 1354 1353 1352
1408 1407 1405 1404 1402 1401 1400 1399 1397 1396 1394 1393 1391 1389 1387 1385 1384 1383 1381 1378 1377 1376 1375 1373 1372 1370 1368 1367 1365 1363 1362 1360 1359 1357 1356 1354 1353 1352 1350 1349 1348 1347 1346 1345
1404 1402 1400 1399 1397 1396 1394 1393 1392 1390 1388 1387 1385 1383 1381 1379 1378 1376 1374 1373 1370 1370 1368 1366 1365 1363 1362 1360 1359 1357 1355 1354 1352 1351 1349 1348 1346 1345 1344 1342 1341 1340 1339 1338
1399 1397 1395 1394 1392 1390 1388 1387 1386 1384 1382 1381 1379 1377 1375 1373 1372 1370 1367 1366 1365 1363 1362 1360 1359 1357 1356 1354 1352 1350 1349 1347 1346 1344 1343 1341 1340 1338 1337 1335 1334 1333 1332 1331
1393 1392 1390 1388 1386 1384 1382 1380 1379 1378 1376 1374 1373 1371 1369 1367 1365 1364 1362 1360 1358 1357 1355 1354 1353 1351 1350 1348 1346 1344 1343 1341 1339 1338 1336 1334 1333 1331 1330 1329 1327 1326 1325 1324
1388 1386 1384 1382 1380 1378 1376 1374 1373 1371 1369 1368 1366 1364 1363 1361 1359 1357 1356 1354 1352 1351 1349 1348 1347 1345 1344 1342 1340 1338 1337 1335 1333 1331 1330 1328 1326 1325 1323 1322 1321 1320 1319 1317
1382 1380 1378 1376 1374 1373 1371 1369 1367 1365 1364 1361 1359 1358 1357 1355 1353 1352 1350 1348 1347 1345 1344 1342 1341 1339 1338 1336 1334 1333 1331 1329 1327 1325 1323 1322 1320 1319 1317 1316 1314 1313 1312 1311
1376 1374 1372 1370 1368 1367 1366 1364 1362 1360 1358 1356 1354 1352 1351 1349 1348 1346 1344 1343 1341 1340 1338 1336 1335 1333 1332 1330 1328 1327 1325 1323 1321 1319 1318 1316 1314 1313 1311 1310 1309 1308 1306 1305